| time (UTC) | temp F | wind direction | speed knots | gust knots | rain 1hr in | rain 24hr in | rain mn in | humidity % | barometer mb |
| 20260507060904 | 44 | 327 | 3.5 | 6.1 | 0.00 | 0.00 | 0.00 | 63 | 993.5 |
| 20260507055404 | 45 | 264 | 4.3 | 7.0 | 0.00 | 0.00 | 0.00 | 61 | 993.6 |
| 20260507053901 | 45 | 275 | 6.1 | 8.7 | 0.00 | 0.00 | 0.00 | 63 | 993.5 |
| 20260507052359 | 45 | 11 | 4.3 | 7.0 | 0.00 | 0.00 | 0.00 | 68 | 993.7 |
| 20260507050857 | 45 | 276 | 1.7 | 2.6 | 0.00 | 0.00 | 0.00 | 68 | 993.6 |
| 20260507045352 | 45 | 250 | 1.7 | 2.6 | 0.00 | 0.00 | 0.00 | 66 | 993.5 |
| 20260507043848 | 45 | 206 | 0.0 | 1.7 | 0.00 | 0.00 | 0.00 | 65 | 993.5 |
| 20260507042343 | 45 | 203 | 0.0 | 0.9 | 0.00 | 0.00 | 0.00 | 64 | 993.6 |
| 20260507040840 | 45 | 215 | 0.9 | 0.9 | 0.00 | 0.00 | 0.00 | 62 | 993.6 |
| 20260507035339 | 46 | 204 | 0.0 | 1.7 | 0.00 | 0.00 | 0.00 | 59 | 993.5 |
| 20260507033837 | 46 | 209 | 0.0 | 1.7 | 0.00 | 0.00 | 0.00 | 60 | 993.5 |
| 20260507032333 | 45 | 180 | 0.0 | 0.0 | 0.00 | 0.00 | 0.00 | 62 | 993.6 |
| 20260507030828 | 46 | 190 | 0.0 | 0.9 | 0.00 | 0.00 | 0.00 | 58 | 993.6 |
| 20260507025326 | 47 | 250 | 1.7 | 2.6 | 0.00 | 0.00 | 0.00 | 55 | 993.7 |
| 20260507023822 | 48 | 256 | 0.9 | 1.7 | 0.00 | 0.00 | 0.00 | 54 | 993.7 |
| 20260507022318 | 48 | 229 | 1.7 | 3.5 | 0.00 | 0.00 | 0.00 | 53 | 993.6 |
| 20260507020814 | 48 | 188 | 1.7 | 1.7 | 0.00 | 0.00 | 0.00 | 51 | 993.3 |
| 20260507015310 | 49 | 253 | 1.7 | 2.6 | 0.00 | 0.00 | 0.00 | 50 | 993.3 |
| 20260507013806 | 49 | 232 | 2.6 | 3.5 | 0.00 | 0.00 | 0.00 | 47 | 993.2 |
| 20260507012305 | 49 | 242 | 1.7 | 2.6 | 0.00 | 0.00 | 0.00 | 47 | 993.1 |
| 20260507010801 | 49 | 223 | 0.9 | 2.6 | 0.00 | 0.00 | 0.00 | 46 | 993.1 |
| 20260507005257 | 50 | 243 | 1.7 | 3.5 | 0.00 | 0.00 | 0.00 | 46 | 993.2 |
| 20260507003754 | 50 | 219 | 1.7 | 2.6 | 0.00 | 0.00 | 0.00 | 45 | 992.9 |
| 20260507002253 | 50 | 203 | 1.7 | 2.6 | 0.00 | 0.00 | 0.00 | 45 | 993.0 |
| 20260507000750 | 50 | 202 | 1.7 | 2.6 | 0.00 | 0.00 | 0.00 | 44 | 992.8 |
| 20260506235249 | 50 | 231 | 0.9 | 5.2 | 0.00 | 0.00 | 0.00 | 44 | 992.7 |
| 20260506233748 | 51 | 273 | 2.6 | 2.6 | 0.00 | 0.00 | 0.00 | 44 | 992.8 |
| 20260506232247 | 51 | 269 | 0.9 | 5.2 | 0.00 | 0.00 | 0.00 | 43 | 992.9 |
| 20260506230745 | 51 | 333 | 3.5 | 5.2 | 0.00 | 0.00 | 0.00 | 42 | 992.9 |
| 20260506225242 | 51 | 307 | 3.5 | 6.1 | 0.00 | 0.00 | 0.00 | 41 | 992.9 |
| 20260506223738 | 53 | 261 | 5.2 | 8.7 | 0.00 | 0.00 | 0.00 | 41 | 992.8 |
| 20260506222238 | 52 | 279 | 1.7 | 5.2 | 0.00 | 0.00 | 0.00 | 41 | 992.9 |
| 20260506220737 | 54 | 257 | 6.1 | 7.8 | 0.00 | 0.00 | 0.00 | 38 | 992.9 |
| 20260506215236 | 54 | 275 | 3.5 | 7.8 | 0.00 | 0.00 | 0.00 | 40 | 992.6 |
| 20260506213734 | 54 | 294 | 6.1 | 7.8 | 0.00 | 0.00 | 0.00 | 39 | 992.7 |
| 20260506212229 | 55 | 239 | 4.3 | 9.6 | 0.00 | 0.00 | 0.00 | 40 | 992.7 |
| 20260506210724 | 56 | 252 | 3.5 | 7.8 | 0.00 | 0.00 | 0.00 | 40 | 992.8 |
| 20260506205219 | 55 | 248 | 7.0 | 8.7 | 0.00 | 0.00 | 0.00 | 39 | 993.0 |
| 20260506203718 | 54 | 193 | 2.6 | 7.8 | 0.00 | 0.00 | 0.00 | 41 | 993.1 |
| 20260506202214 | 53 | 333 | 7.0 | 13.9 | 0.00 | 0.00 | 0.00 | 40 | 993.1 |
| 20260506200711 | 53 | 222 | 0.9 | 7.8 | 0.00 | 0.00 | 0.00 | 37 | 993.1 |
| 20260506195206 | 54 | 166 | 3.5 | 8.7 | 0.00 | 0.00 | 0.00 | 39 | 993.3 |
| 20260506193704 | 55 | 246 | 5.2 | 8.7 | 0.00 | 0.00 | 0.00 | 39 | 993.5 |
| 20260506192159 | 53 | 229 | 2.6 | 7.0 | 0.00 | 0.00 | 0.00 | 39 | 993.4 |
| 20260506190656 | 53 | 276 | 3.5 | 8.7 | 0.00 | 0.00 | 0.00 | 38 | 993.2 |
| 20260506185151 | 55 | 247 | 5.2 | 7.0 | 0.00 | 0.00 | 0.00 | 39 | 993.6 |
| 20260506183649 | 53 | 280 | 7.0 | 7.8 | 0.00 | 0.00 | 0.00 | 39 | 993.4 |
| 20260506182145 | 52 | 281 | 3.5 | 7.0 | 0.00 | 0.00 | 0.00 | 41 | 993.2 |
| 20260506180643 | 52 | 1 | 2.6 | 7.0 | 0.00 | 0.00 | 0.00 | 42 | 993.6 |
| 20260506175138 | 52 | 289 | 5.2 | 7.0 | 0.00 | 0.00 | 0.00 | 41 | 993.3 |
| 20260506173637 | 52 | 257 | 5.2 | 7.8 | 0.00 | 0.00 | 0.00 | 40 | 993.4 |
| 20260506172132 | 52 | 195 | 1.7 | 6.1 | 0.00 | 0.00 | 0.00 | 44 | 993.6 |
| 20260506170631 | 52 | 278 | 8.7 | 11.3 | 0.00 | 0.00 | 0.00 | 42 | 993.4 |
| 20260506165127 | 52 | 242 | 3.5 | 12.2 | 0.00 | 0.00 | 0.00 | 46 | 993.7 |
| 20260506163623 | 53 | 232 | 6.1 | 8.7 | 0.00 | 0.00 | 0.00 | 42 | 993.4 |
| 20260506162122 | 53 | 259 | 8.7 | 11.3 | 0.00 | 0.00 | 0.00 | 40 | 993.4 |
| 20260506160619 | 53 | 279 | 6.1 | 7.8 | 0.00 | 0.00 | 0.00 | 39 | 993.2 |
| 20260506155116 | 52 | 278 | 3.5 | 6.1 | 0.00 | 0.00 | 0.00 | 42 | 993.4 |
| 20260506152559 | 51 | 284 | 4.3 | 5.2 | 0.00 | 0.00 | 0.00 | 45 | 993.6 |
| 20260506151057 | 50 | 229 | 2.6 | 5.2 | 0.00 | 0.00 | 0.00 | 46 | 993.5 |
| 20260506145553 | 50 | 246 | 2.6 | 6.1 | 0.00 | 0.00 | 0.00 | 43 | 993.6 |
| 20260506144050 | 50 | 347 | 0.0 | 0.9 | 0.00 | 0.00 | 0.00 | 47 | 993.3 |
| 20260506142549 | 50 | 213 | 0.9 | 2.6 | 0.00 | 0.00 | 0.00 | 46 | 993.1 |
| 20260506141049 | 49 | 1 | 1.7 | 2.6 | 0.00 | 0.00 | 0.00 | 53 | 993.1 |
| 20260506135546 | 48 | 76 | 1.7 | 2.6 | 0.00 | 0.00 | 0.00 | 53 | 993.0 |
| 20260506134046 | 48 | 238 | 0.9 | 3.5 | 0.00 | 0.00 | 0.00 | 60 | 993.0 |
| 20260506132544 | 48 | 42 | 1.7 | 2.6 | 0.00 | 0.00 | 0.00 | 59 | 992.7 |
| 20260506131040 | 47 | 139 | 2.6 | 3.5 | 0.00 | 0.00 | 0.00 | 64 | 992.3 |
| 20260506125539 | 45 | 152 | 0.9 | 2.6 | 0.00 | 0.00 | 0.00 | 67 | 992.6 |
| 20260506124037 | 44 | 52 | 1.7 | 1.7 | 0.00 | 0.00 | 0.00 | 70 | 992.7 |
| 20260506122535 | 42 | 16 | 1.7 | 5.2 | 0.00 | 0.00 | 0.00 | 72 | 992.3 |
| 20260506121032 | 41 | 37 | 1.7 | 5.2 | 0.00 | 0.00 | 0.00 | 74 | 992.4 |
| 20260506115531 | 41 | 7 | 2.6 | 2.6 | 0.00 | 0.00 | 0.00 | 75 | 992.4 |
| 20260506114031 | 40 | 1 | 0.9 | 1.7 | 0.00 | 0.00 | 0.00 | 75 | 991.9 |
| 20260506112528 | 38 | 124 | 0.0 | 0.9 | 0.00 | 0.00 | 0.00 | 82 | 991.5 |
| 20260506111026 | 36 | 207 | 0.0 | 0.0 | 0.00 | 0.00 | 0.00 | 88 | 991.3 |
| 20260506105522 | 35 | 207 | 0.0 | 0.0 | 0.00 | 0.00 | 0.00 | 89 | 991.0 |
| 20260506104021 | 35 | 207 | 0.0 | 0.0 | 0.00 | 0.00 | 0.00 | 87 | 991.1 |
| 20260506102519 | 36 | 209 | 0.0 | 0.0 | 0.00 | 0.00 | 0.00 | 83 | 991.1 |
| 20260506101016 | 38 | 229 | 0.9 | 0.9 | 0.00 | 0.00 | 0.00 | 81 | 991.4 |
| 20260506095517 | 38 | 265 | 0.9 | 1.7 | 0.00 | 0.00 | 0.00 | 80 | 991.0 |
| 20260506094014 | 39 | 278 | 1.7 | 2.6 | 0.00 | 0.00 | 0.00 | 80 | 991.0 |
| 20260506092513 | 39 | 230 | 0.9 | 1.7 | 0.00 | 0.00 | 0.00 | 81 | 990.9 |
| 20260506091010 | 39 | 236 | 1.7 | 1.7 | 0.00 | 0.00 | 0.00 | 81 | 990.5 |
| 20260506085507 | 39 | 231 | 0.9 | 1.7 | 0.00 | 0.00 | 0.00 | 82 | 990.3 |
| 20260506084008 | 39 | 227 | 0.9 | 0.9 | 0.00 | 0.00 | 0.00 | 85 | 990.4 |
| 20260506082505 | 39 | 211 | 0.0 | 1.7 | 0.00 | 0.00 | 0.00 | 85 | 990.5 |
| 20260506081002 | 39 | 217 | 0.0 | 1.7 | 0.00 | 0.00 | 0.00 | 86 | 990.4 |
| 20260506072454 | 40 | 212 | 0.0 | 1.7 | 0.00 | 0.00 | 0.00 | 83 | 990.5 |
| 20260506070952 | 40 | 251 | 0.9 | 1.7 | 0.00 | 0.00 | 0.00 | 84 | 990.6 |
| 20260506062445 | 41 | 274 | 2.6 | 2.6 | 0.00 | 0.00 | 0.00 | 80 | 990.7 |